Regional Weather Roundup
Issued by NWS

Home | Current Version | Previous Version | Text Only | Print | Product List | Glossary Off
Versions: 1 2 3 4 5 6 7 8 9 10 11 12 13 14 15 16 17 18 19 20 21 22 23 24 25 26 27 28 29 30 31 32 33 34 35 36 37 38 39 40 41 42 43 44 45 46 47 48 49 50

000
ASUS45 KTFX 021310
RWRMT
MONTANA REGIONAL WEATHER ROUNDUP
NATIONAL WEATHER SERVICE GREAT FALLS MT
700 AM MDT SUN AUG 02 2015

NOTE: "FAIR" INDICATES FEW OR NO CLOUDS BELOW 12000 FEET WITH NO
SIGNIFICANT WEATHER AND/OR OBSTRUCTIONS TO VISIBILITY.

MTZ001>007-043-021400-
WEST OF THE DIVIDE

CITY           SKY/WX    TMP DP  RH WIND       PRES   REMARKS
KALISPELL      SUNNY     64  47  53 N9        29.98R
MISSOULA       MOCLDY    53  38  56 CALM      30.05R
BUTTE          CLEAR     46  35  65 SE5       30.18R
MULLAN PASS    CLOUDY    67  14  13 NW3       30.17R
DEER LODGE       N/A     48  37  66 W3        30.16R
EUREKA           N/A     48  32  53 CALM      30.01R
HAMILTON         N/A     57  39  51 SE5       30.05R
LIBBY            N/A     46  32  57 CALM      30.00R
PLAINS           N/A     47  34  60 CALM      30.00R
RONAN            N/A     49  37  63 CALM      30.03R
$$

MTZ008-052>055-021400-
SOUTHWEST MONTANA

CITY           SKY/WX    TMP DP  RH WIND       PRES   REMARKS
BOZEMAN        CLEAR     52  43  71 SE6       30.10R
DILLON         CLEAR     52  37  56 S9        30.14R
W YELLOWSTONE  PTCLDY    37  36  93 CALM      30.26R
THREE FORKS      N/A     47  27  46 CALM      30.07R
TWIN BRIDGES     N/A     48  37  65 S2        30.11R
$$

MTZ009-010-012-014-046-048-049-054-021400-
EAST SLOPES AND CENTRAL MONTANA

CITY           SKY/WX    TMP DP  RH WIND       PRES   REMARKS
CUT BANK       CLEAR     52  49  89 NW8       30.11R
GREAT FALLS    PTCLDY    55  50  83 W8        30.07R
MALMSTROM AFB  PTCLDY    57  52  82 W7        30.07R
HELENA         PTCLDY    62  37  39 W8        30.08R
CONRAD           N/A     56  55  96 W8        30.11R
$$

MTZ011-013-016-021-045-047-050-051-021400-
NORTH CENTRAL MONTANA

CITY           SKY/WX    TMP DP  RH WIND       PRES   REMARKS
HAVRE          CLEAR     60  53  77 E13       30.04R
LEWISTOWN      CLEAR     61  52  72 SE13      30.05R
CHINOOK          N/A     59  54  82 N3        30.06R
FORT BENTON      N/A     57  45  62 CALM      30.06R
$$

MTZ017>020-022>027-061-062-021400-
NORTHEAST MONTANA

CITY           SKY/WX    TMP DP  RH WIND       PRES   REMARKS
GLASGOW        SUNNY     59  52  77 NW5       30.03R
JORDAN           N/A     60  52  74 NE8       30.03R
SIDNEY         SUNNY     61  52  72 W7        29.99R
WOLF POINT     SUNNY     57  53  86 S3        30.02R
MALTA            N/A     57  52  84 CALM      30.01R
PLENTYWOOD       N/A     59  54  82 N9        30.00R
POPLAR           N/A     57  54  88 W5        30.03R
$$

MTZ028>42-056>058-021400-
SOUTHCENTRAL AND SOUTHEAST MONTANA

CITY           SKY/WX    TMP DP  RH WIND       PRES   REMARKS
BAKER          SUNNY     55  48  77 CALM      30.01R
BILLINGS       PTCLDY    64  37  36 N8        30.02R
LIVINGSTON     CLEAR     53  40  61 NW6       30.09R
MILES CITY     SUNNY     63  53  70 NE15      29.98R
FORSYTH          N/A     64  54  68 E6        29.98R
LAUREL           N/A     65  34  31 NW3       30.00R
ROUNDUP          N/A     61  49  64 N5        29.95R
$$

REGIONAL REPORTS...DAKOTAS

CITY           SKY/WX    TMP DP  RH WIND       PRES   REMARKS
WILLISTON      SUNNY     62  54  74 N6        29.98R
MINOT          SUNNY     61  53  75 W13       29.90R
DICKINSON      SUNNY     56  53  90 W7        29.95R
CROSBY         FAIR      57  57 100 NW13      29.98R
BISMARCK       SUNNY     64  57  78 NW9       29.90R
GRAND FORKS    MOSUNNY   65  59  81 N14       29.75R
FARGO          MOSUNNY   67  61  81 N14       29.72R
BUFFALO SD       N/A     63  51  65 NE13      29.91S
RAPID CITY     SUNNY     67  45  45 N15       29.95R
$$

REGIONAL REPORTS...WYOMING/IDAHO/WASHINGTON

CITY           SKY/WX    TMP DP  RH WIND       PRES   REMARKS
GILLETTE       CLOUDY    70  33  25 W10       30.01R
SHERIDAN       PTCLDY    58  44  60 NW3       29.99R
BUFFALO WY     MOSUNNY   69  33  26 W5        30.07R
CODY           CLEAR     64  34  32 SW5       30.09R
YELLOWSTONE LA   N/A     41  35  79 CALM      30.35R
IDAHO FALLS    MOCLDY    49  43  80 N7        30.08R
SALMON         PTCLDY    48  43  81 CALM      30.09R
BOISE          CLEAR     70  37  29 S6        29.90R
SPOKANE        MOCLDY    65  27  23 E3        29.91R
$$

REGIONAL REPORTS...ALBERTA

CITY           SKY/WX    TMP DP  RH WIND       PRES   REMARKS
EDMONTON       CLEAR     52  50  93 E2        30.03R
CALGARY        PTCLDY    59  54  82 S9        30.09F
LETHBRIDGE     PTCLDY    54  50  87 W5        30.09S
MEDICINE HAT   PTCLDY    63  52  67 E3        30.05F
WATERTON GATE    N/A     45  43  93 SW2         N/A
ONEFOUR          N/A     59  48  67 E8          N/A
$$

REGIONAL REPORTS...SASKATCHEWAN

CITY           SKY/WX    TMP DP  RH WIND       PRES   REMARKS
SWIFT CURRENT  LGT RAIN  55  54  94 SW5       30.06R
REGINA         MOSUNNY   57  55  94 NW12      30.00R
SASKATOON      SUNNY     54  52  94 NW7       30.03R
CYPRESS HILLS    N/A     57  46  67 NE2         N/A
VAL MARIE        N/A     54  50  87 S1          N/A
ROCKGLEN         N/A     55  54  94 NW6         N/A
ASSINIBOIA       N/A     52  50  93 CALM        N/A
$$



USA.gov is the U.S. government's official web portal to all federal, state and local government web resources and services.